Regional Weather Roundup
Issued by NWS Albany, NY

Home | Current Version | Previous Version | Text Only | Print | Product List | Glossary On
Versions: 1 2 3 4 5 6 7 8 9 10 11 12 13 14 15 16 17 18 19 20 21 22 23 24 25 26 27 28 29 30 31 32 33 34 35 36 37 38 39 40 41 42 43 44 45 46 47 48 49 50
000
ASUS41 KALY 250910
RWRALY

NEW YORK STATE HOURLY WEATHER ROUNDUP
NATIONAL WEATHER SERVICE ALBANY NY
500 AM EDT FRI JUL 25 2014

NOTE: "FAIR" INDICATES FEW OR NO CLOUDS BELOW 12,000 FEET WITH NO
SIGNIFICANT WEATHER AND/OR NO OBSTRUCTIONS TO VISIBILITY.

NYZ032-033-038>043-046>054-057>066-NYZ062>081-251000-
EAST


CITY           SKY/WX    TMP DP  RH WIND       PRES   REMARKS
ALBANY         CLEAR     57  50  77 CALM      29.99S
GLENS FALLS    CLEAR     53  50  89 CALM      29.98S
POUGHKEEPSIE   CLEAR     56  54  93 CALM      29.98S
NEWBURGH       CLEAR     55  54  94 CALM      30.00R
MONTGOMERY     CLEAR     53  51  93 CALM      29.99S
WHITE PLAINS   MOCLDY    63  52  67 N10       29.96R
ISLIP          CLEAR     67  56  67 N7        29.93R
NEW YORK CITY  PTCLDY    68  54  60 N7        29.95R
CENTRAL PARK   CLEAR     67  53  61 VRB6      29.99R
$$

NYZ005>009-017-018-044>046-055-056-251000-
CENTRAL


CITY           SKY/WX    TMP DP  RH WIND       PRES   REMARKS
FULTON         CLEAR     54  52  93 S3        30.01S
SYRACUSE       CLEAR     57  51  80 CALM      30.01S
ROME           CLEAR     51  49  92 CALM      30.02S
ELMIRA         PTCLDY    45  45 100 CALM      30.04S
BINGHAMTON     CLEAR     51  48  89 CALM      30.03S
MONTICELLO     CLEAR     52  48  87 CALM      30.02S
$$

NYZ026>034-041>043-251000-
NORTH


CITY           SKY/WX    TMP DP  RH WIND       PRES   REMARKS
WATERTOWN      CLEAR     57  52  83 CALM      29.98S
FORT DRUM      NOT AVBL
MASSENA        CLEAR     56  55  97 SW8       29.95F
SARANAC LAKE   CLEAR     41  39  93 CALM      29.99S
PLATTSBURGH    CLEAR     51  50  96 CALM      29.94S
$$

NYZ001>004-010>016-019>021-251000-
WEST


CITY           SKY/WX    TMP DP  RH WIND       PRES   REMARKS
NIAGARA FALLS  CLEAR     54  50  86 CALM      30.02S
BUFFALO        CLEAR     54  49  83 SE5       30.03S
DUNKIRK        CLEAR     56  49  77 S3        30.03F
JAMESTOWN      CLEAR     48  45  87 S5        30.07S
WELLSVILLE     CLEAR     48  43  82 CALM      30.08R
ROCHESTER      CLEAR     53  50  89 SW6       30.03S
PENN YAN       CLEAR     55  52  89 SW6       30.04S
$$

             KEY
       WCI = WIND CHILL INDEX
       VSB = VISIBILITY
       HX  = HEAT INDEX
$$


USA.gov is the U.S. government's official web portal to all federal, state and local government web resources and services.